TimeEST,TemperatureF,Dew PointF,Humidity,Sea Level PressureIn,VisibilityMPH,Wind Direction,Wind SpeedMPH,Gust SpeedMPH,PrecipitationIn,Events,Conditions,WindDirDegrees,DateUTC
12:54 AM,21.9,12.0,66,30.09,10.0,SE,4.6,-,N/A,,Overcast,140,2013-01-30 05:54:00
1:04 AM,21.2,12.2,68,30.05,10.0,SSE,4.6,-,N/A,,Overcast,150,2013-01-30 06:04:00
1:54 AM,25.0,12.0,58,30.06,10.0,South,12.7,20.7,N/A,,Overcast,180,2013-01-30 06:54:00
2:54 AM,24.1,14.0,65,30.02,7.0,SSE,18.4,25.3,N/A,,Overcast,160,2013-01-30 07:54:00
3:09 AM,23.0,15.8,74,29.98,6.0,South,15.0,24.2,0.00,Rain,Light Freezing Rain,170,2013-01-30 08:09:00
3:47 AM,23.0,15.8,74,29.94,10.0,South,13.8,-,N/A,Rain,Light Freezing Rain,170,2013-01-30 08:47:00
3:54 AM,23.0,16.0,74,29.97,10.0,South,11.5,18.4,0.01,,Overcast,170,2013-01-30 08:54:00
4:45 AM,24.8,19.4,80,29.89,6.0,South,12.7,20.7,0.00,Rain,Light Freezing Rain,170,2013-01-30 09:45:00
4:54 AM,25.0,19.9,81,29.92,9.0,South,16.1,24.2,0.00,Rain,Light Freezing Rain,180,2013-01-30 09:54:00
5:16 AM,24.8,21.2,86,29.88,10.0,South,12.7,20.7,0.00,,Overcast,180,2013-01-30 10:16:00
5:46 AM,26.6,21.2,80,29.86,10.0,South,12.7,21.9,0.00,,Overcast,170,2013-01-30 10:46:00
5:54 AM,26.1,23.0,88,29.90,10.0,South,16.1,21.9,0.00,,Overcast,170,2013-01-30 10:54:00
6:08 AM,26.6,23.0,86,29.84,5.0,SSE,12.7,-,0.00,Rain,Light Freezing Rain,160,2013-01-30 11:08:00
7:16 AM,30.2,26.6,86,29.79,8.0,South,13.8,23.0,0.01,Rain,Light Freezing Rain,170,2013-01-30 12:16:00
7:54 AM,30.9,30.0,96,29.81,3.0,South,13.8,-,0.02,Rain,Light Freezing Rain,180,2013-01-30 12:54:00
8:09 AM,32.0,30.2,93,29.76,4.0,South,11.5,-,0.01,,Overcast,170,2013-01-30 13:09:00
8:36 AM,33.8,32.0,93,29.72,9.0,South,13.8,19.6,0.02,Rain,Light Rain,170,2013-01-30 13:36:00
8:54 AM,35.1,32.0,89,29.76,10.0,South,13.8,-,0.03,,Overcast,180,2013-01-30 13:54:00
9:27 AM,35.6,33.8,93,29.70,2.0,South,18.4,26.5,0.00,Snow,Light Snow,180,2013-01-30 14:27:00
9:36 AM,35.6,33.8,93,29.69,4.0,South,20.7,27.6,0.00,Rain,Light Rain,180,2013-01-30 14:36:00
9:54 AM,36.0,34.0,93,29.72,10.0,South,16.1,28.8,0.01,,Overcast,190,2013-01-30 14:54:00
10:20 AM,37.4,33.8,87,29.66,10.0,South,17.3,31.1,0.00,,Overcast,180,2013-01-30 15:20:00
10:54 AM,37.9,34.0,86,29.67,10.0,South,12.7,28.8,0.01,,Overcast,180,2013-01-30 15:54:00
11:16 AM,37.4,35.6,93,29.61,10.0,South,16.1,27.6,N/A,,Overcast,180,2013-01-30 16:16:00
11:54 AM,39.0,35.1,86,29.62,10.0,South,16.1,25.3,N/A,,Overcast,180,2013-01-30 16:54:00
12:54 PM,39.9,36.0,86,29.56,10.0,South,16.1,28.8,0.01,,Overcast,180,2013-01-30 17:54:00
1:54 PM,41.0,37.0,86,29.52,10.0,South,15.0,26.5,N/A,,Overcast,190,2013-01-30 18:54:00
2:21 PM,41.0,37.4,87,29.47,10.0,South,13.8,21.9,N/A,,Overcast,190,2013-01-30 19:21:00
2:54 PM,42.1,37.9,85,29.49,10.0,South,13.8,24.2,N/A,,Overcast,190,2013-01-30 19:54:00
3:54 PM,42.1,39.0,89,29.46,10.0,South,13.8,24.2,N/A,,Overcast,190,2013-01-30 20:54:00
4:08 PM,42.8,39.2,87,29.42,10.0,South,11.5,-,N/A,,Overcast,190,2013-01-30 21:08:00
4:54 PM,41.0,39.0,93,29.42,10.0,SSE,9.2,-,0.01,,Overcast,160,2013-01-30 21:54:00
5:54 PM,44.1,42.1,93,29.39,10.0,South,10.4,19.6,N/A,,Overcast,190,2013-01-30 22:54:00
6:54 PM,45.0,43.0,93,29.39,10.0,SSW,11.5,19.6,0.00,,Overcast,200,2013-01-30 23:54:00
7:54 PM,45.0,43.0,93,29.36,10.0,South,10.4,20.7,N/A,,Overcast,180,2013-01-31 00:54:00
8:54 PM,45.0,43.0,93,29.37,10.0,SSW,6.9,-,0.01,,Overcast,200,2013-01-31 01:54:00
9:54 PM,44.1,42.1,93,29.37,9.0,South,5.8,-,0.00,Rain,Light Rain,180,2013-01-31 02:54:00
10:54 PM,44.1,42.1,93,29.34,7.0,SE,6.9,-,0.01,,Overcast,140,2013-01-31 03:54:00
11:08 PM,44.6,42.8,93,29.30,1.8,SE,5.8,-,N/A,,Overcast,140,2013-01-31 04:08:00
11:54 PM,44.1,43.0,96,29.32,2.5,SSE,4.6,-,0.00,Rain,Light Rain,150,2013-01-31 04:54:00